Multibeam Report for EX1402L3


Ship Name: Okeanos Explorer
Chief Scientist: Lobecker, Elizabeth
NOAA/OAR/OER
Source Organization: NOAA Office of Ocean Exploration and Research (OER)
Start Date: 2014-04-10
End Date: 2014-05-01


View ISO Metadata

Visit the full NCEI Bathymetry Viewer


Multibeam Bathymetry

Cruise Details

Project: Gulf of Mexico Mapping and ROV Exploration
Instrument: Kongsberg EM302

Data Quality

Number of Files: 668
Number of Records: 963942
BATHYMETRY DATA Quantity Percentage
Number of Beams 161371872 100%
Number of Good Beams 153760660 95.28%
Number of Zero Beams 0 0%
Number of Flagged Beams 7611212 4.72%

Navigation Totals

Total Time: 269.6622 hours
Total Track Length: 4351.7361 km
Average Speed: 16.138 km/hr (8.7138 knots)

Cruise Bounds

Northern Extent: 29.646708
Southern Extent: 25.837444
Western Extent: -93.58847
Eastern Extent: -83.83272

Limits

Minimum Sonar Depth 0 Maximum Sonar Depth 5.1834
Minimum Altitude 32.983 Maximum Altitude 4590.2949
Minimum Depth 28.4617 Maximum Depth 4660.7412

File Information

Full Resolution Bathymetry as collected (raw): 319

Files File Size Description
0001_20140411_032832_EX1402L3_MB.all.mb58.gz 491.99MB Kongsberg multibeam vendor format
0002_20140411_052832_EX1402L3_MB.all.mb58.gz 205.85MB Kongsberg multibeam vendor format
0003_20140411_072837_EX1402L3_MB.all.mb58.gz 111.11MB Kongsberg multibeam vendor format
0004_20140411_092834_EX1402L3_MB.all.mb58.gz 110.29MB Kongsberg multibeam vendor format
0005_20140411_112835_EX1402L3_MB.all.mb58.gz 116.30MB Kongsberg multibeam vendor format
0006_20140411_132835_EX1402L3_MB.all.mb58.gz 176.15MB Kongsberg multibeam vendor format
0007_20140411_152833_EX1402L3_MB.all.mb58.gz 196.43MB Kongsberg multibeam vendor format
0008_20140411_172832_EX1402L3_MB.all.mb58.gz 202.94MB Kongsberg multibeam vendor format
0009_20140411_192832_EX1402L3_MB.all.mb58.gz 204.18MB Kongsberg multibeam vendor format
0010_20140411_212834_EX1402L3_MB.all.mb58.gz 181.72MB Kongsberg multibeam vendor format
0011_20140411_232833_EX1402L3_MB.all.mb58.gz 59.69MB Kongsberg multibeam vendor format
0012_20140412_000928_EX1402L3_MB.all.mb58.gz 198.18MB Kongsberg multibeam vendor format
0013_20140412_020928_EX1402L3_MB.all.mb58.gz 194.12MB Kongsberg multibeam vendor format
0014_20140412_040931_EX1402L3_MB.all.mb58.gz 161.70MB Kongsberg multibeam vendor format
0015_20140412_060928_EX1402L3_MB.all.mb58.gz 167.09MB Kongsberg multibeam vendor format
0016_20140412_080931_EX1402L3_MB.all.mb58.gz 25.57MB Kongsberg multibeam vendor format
0017_20140412_083512_EX1402L3_MB.all.mb58.gz 12.66MB Kongsberg multibeam vendor format
0018_20140412_084739_EX1402L3_MB.all.mb58.gz 60.40MB Kongsberg multibeam vendor format
0019_20140412_093615_EX1402L3_MB.all.mb58.gz 12.08MB Kongsberg multibeam vendor format
0020_20140412_094449_EX1402L3_MB.all.mb58.gz 14.74MB Kongsberg multibeam vendor format
0021_20140412_095733_EX1402L3_MB.all.mb58.gz 13.03MB Kongsberg multibeam vendor format
0022_20140412_101029_EX1402L3_MB.all.mb58.gz 39.04MB Kongsberg multibeam vendor format
0023_20140412_104955_EX1402L3_MB.all.mb58.gz 7.96MB Kongsberg multibeam vendor format
0024_20140412_105754_EX1402L3_MB.all.mb58.gz 33.29MB Kongsberg multibeam vendor format
0025_20140412_112523_EX1402L3_MB.all.mb58.gz 2.82MB Kongsberg multibeam vendor format
0026_20140413_005516_EX1402L3_MB.all.mb58.gz 81.30MB Kongsberg multibeam vendor format
0027_20140413_021722_EX1402L3_MB.all.mb58.gz 8.68MB Kongsberg multibeam vendor format
0028_20140413_022605_EX1402L3_MB.all.mb58.gz 14.14MB Kongsberg multibeam vendor format
0029_20140413_024022_EX1402L3_MB.all.mb58.gz 30.15MB Kongsberg multibeam vendor format
0030_20140413_031041_EX1402L3_MB.all.mb58.gz 94.39MB Kongsberg multibeam vendor format
0031_20140413_044550_EX1402L3_MB.all.mb58.gz 15.56MB Kongsberg multibeam vendor format
0032_20140413_050139_EX1402L3_MB.all.mb58.gz 102.71MB Kongsberg multibeam vendor format
0033_20140413_064616_EX1402L3_MB.all.mb58.gz 18.82MB Kongsberg multibeam vendor format
0034_20140413_070524_EX1402L3_MB.all.mb58.gz 99.02MB Kongsberg multibeam vendor format
0035_20140413_084744_EX1402L3_MB.all.mb58.gz 16.66MB Kongsberg multibeam vendor format
0036_20140413_090508_EX1402L3_MB.all.mb58.gz 107.08MB Kongsberg multibeam vendor format
0037_20140413_105646_EX1402L3_MB.all.mb58.gz 14.61MB Kongsberg multibeam vendor format
0038_20140413_111145_EX1402L3_MB.all.mb58.gz 29.24MB Kongsberg multibeam vendor format
0039_20140413_210315_EX1402L3_MB.all.mb58.gz 10.22MB Kongsberg multibeam vendor format
0040_20140413_211325_EX1402L3_MB.all.mb58.gz 53.85MB Kongsberg multibeam vendor format
0041_20140413_220804_EX1402L3_MB.all.mb58.gz 109.21MB Kongsberg multibeam vendor format
0042_20140414_000006_EX1402L3_MB.all.mb58.gz 118.54MB Kongsberg multibeam vendor format
0043_20140414_020007_EX1402L3_MB.all.mb58.gz 121.34MB Kongsberg multibeam vendor format
0044_20140414_040003_EX1402L3_MB.all.mb58.gz 4.94MB Kongsberg multibeam vendor format
0045_20140414_040456_EX1402L3_MB.all.mb58.gz 14.96MB Kongsberg multibeam vendor format
0046_20140414_041942_EX1402L3_MB.all.mb58.gz 121.97MB Kongsberg multibeam vendor format
0047_20140414_061946_EX1402L3_MB.all.mb58.gz 120.02MB Kongsberg multibeam vendor format
0048_20140414_081947_EX1402L3_MB.all.mb58.gz 86.65MB Kongsberg multibeam vendor format
0049_20140414_094814_EX1402L3_MB.all.mb58.gz 8.86MB Kongsberg multibeam vendor format
0050_20140414_095714_EX1402L3_MB.all.mb58.gz 69.50MB Kongsberg multibeam vendor format
0051_20140414_223355_EX1402L3_MB.all.mb58.gz 5.96MB Kongsberg multibeam vendor format
0052_20140414_223954_EX1402L3_MB.all.mb58.gz 121.84MB Kongsberg multibeam vendor format
0053_20140415_003950_EX1402L3_MB.all.mb58.gz 13.13MB Kongsberg multibeam vendor format
0054_20140415_005259_EX1402L3_MB.all.mb58.gz 111.62MB Kongsberg multibeam vendor format
0055_20140415_024708_EX1402L3_MB.all.mb58.gz 6.81MB Kongsberg multibeam vendor format
0056_20140415_025400_EX1402L3_MB.all.mb58.gz 115.21MB Kongsberg multibeam vendor format
0057_20140415_045355_EX1402L3_MB.all.mb58.gz 26.09MB Kongsberg multibeam vendor format
0058_20140415_054653_EX1402L3_MB.all.mb58.gz 102.39MB Kongsberg multibeam vendor format
0059_20140415_074655_EX1402L3_MB.all.mb58.gz 1.21MB Kongsberg multibeam vendor format
0060_20140415_074820_EX1402L3_MB.all.mb58.gz 5.69MB Kongsberg multibeam vendor format
0061_20140415_075602_EX1402L3_MB.all.mb58.gz 7.21MB Kongsberg multibeam vendor format
0062_20140415_083753_EX1402L3_MB.all.mb58.gz 104.70MB Kongsberg multibeam vendor format
0063_20140415_103751_EX1402L3_MB.all.mb58.gz 71.85MB Kongsberg multibeam vendor format
0064_20140415_115730_EX1402L3_MB.all.mb58.gz 3.52MB Kongsberg multibeam vendor format
0065_20140415_120204_EX1402L3_MB.all.mb58.gz 0.84MB Kongsberg multibeam vendor format
0066_20140415_185134_EX1402L3_MB.all.mb58.gz 123.03MB Kongsberg multibeam vendor format
0067_20140415_205134_EX1402L3_MB.all.mb58.gz 117.16MB Kongsberg multibeam vendor format
0068_20140415_225136_EX1402L3_MB.all.mb58.gz 83.49MB Kongsberg multibeam vendor format
0069_20140416_002817_EX1402L3_MB.all.mb58.gz 63.64MB Kongsberg multibeam vendor format
0070_20140416_014448_EX1402L3_MB.all.mb58.gz 97.76MB Kongsberg multibeam vendor format
0071_20140416_034448_EX1402L3_MB.all.mb58.gz 18.00MB Kongsberg multibeam vendor format
0072_20140416_040642_EX1402L3_MB.all.mb58.gz 10.04MB Kongsberg multibeam vendor format
0073_20140416_041841_EX1402L3_MB.all.mb58.gz 99.91MB Kongsberg multibeam vendor format
0074_20140416_061841_EX1402L3_MB.all.mb58.gz 99.56MB Kongsberg multibeam vendor format
0075_20140416_081841_EX1402L3_MB.all.mb58.gz 49.05MB Kongsberg multibeam vendor format
0076_20140416_091037_EX1402L3_MB.all.mb58.gz 115.49MB Kongsberg multibeam vendor format
0077_20140416_111032_EX1402L3_MB.all.mb58.gz 18.70MB Kongsberg multibeam vendor format
0078_20140416_223758_EX1402L3_MB.all.mb58.gz 21.75MB Kongsberg multibeam vendor format
0079_20140416_230053_EX1402L3_MB.all.mb58.gz 4.72MB Kongsberg multibeam vendor format
0080_20140416_230547_EX1402L3_MB.all.mb58.gz 28.11MB Kongsberg multibeam vendor format
0081_20140416_233525_EX1402L3_MB.all.mb58.gz 14.52MB Kongsberg multibeam vendor format
0082_20140416_235029_EX1402L3_MB.all.mb58.gz 31.92MB Kongsberg multibeam vendor format
0083_20140417_002349_EX1402L3_MB.all.mb58.gz 3.26MB Kongsberg multibeam vendor format
0084_20140417_002711_EX1402L3_MB.all.mb58.gz 12.78MB Kongsberg multibeam vendor format
0085_20140417_004024_EX1402L3_MB.all.mb58.gz 50.63MB Kongsberg multibeam vendor format
0086_20140417_013303_EX1402L3_MB.all.mb58.gz 1.75MB Kongsberg multibeam vendor format
0087_20140417_013451_EX1402L3_MB.all.mb58.gz 95.30MB Kongsberg multibeam vendor format
0088_20140417_031249_EX1402L3_MB.all.mb58.gz 8.79MB Kongsberg multibeam vendor format
0089_20140417_032136_EX1402L3_MB.all.mb58.gz 107.09MB Kongsberg multibeam vendor format
0090_20140417_051052_EX1402L3_MB.all.mb58.gz 16.04MB Kongsberg multibeam vendor format
0091_20140417_052708_EX1402L3_MB.all.mb58.gz 118.05MB Kongsberg multibeam vendor format
0092_20140417_072706_EX1402L3_MB.all.mb58.gz 116.75MB Kongsberg multibeam vendor format
0093_20140417_092708_EX1402L3_MB.all.mb58.gz 16.00MB Kongsberg multibeam vendor format
0094_20140417_094341_EX1402L3_MB.all.mb58.gz 9.46MB Kongsberg multibeam vendor format
0097_20140418_014108_EX1402L3_MB.all.mb58.gz 38.27MB Kongsberg multibeam vendor format
0098_20140418_022140_EX1402L3_MB.all.mb58.gz 119.85MB Kongsberg multibeam vendor format
0099_20140418_042140_EX1402L3_MB.all.mb58.gz 116.65MB Kongsberg multibeam vendor format
0100_20140418_062143_EX1402L3_MB.all.mb58.gz 22.04MB Kongsberg multibeam vendor format
0101_20140418_064551_EX1402L3_MB.all.mb58.gz 10.18MB Kongsberg multibeam vendor format
0102_20140418_065714_EX1402L3_MB.all.mb58.gz 42.27MB Kongsberg multibeam vendor format
0103_20140418_074819_EX1402L3_MB.all.mb58.gz 4.31MB Kongsberg multibeam vendor format
0104_20140418_075250_EX1402L3_MB.all.mb58.gz 7.66MB Kongsberg multibeam vendor format
0105_20140418_080049_EX1402L3_MB.all.mb58.gz 85.83MB Kongsberg multibeam vendor format
0106_20140418_093109_EX1402L3_MB.all.mb58.gz 4.05MB Kongsberg multibeam vendor format
0107_20140418_093528_EX1402L3_MB.all.mb58.gz 105.67MB Kongsberg multibeam vendor format
0108_20140418_222756_EX1402L3_MB.all.mb58.gz 102.41MB Kongsberg multibeam vendor format
0109_20140419_001711_EX1402L3_MB.all.mb58.gz 39.64MB Kongsberg multibeam vendor format
0110_20140419_005922_EX1402L3_MB.all.mb58.gz 3.80MB Kongsberg multibeam vendor format
0111_20140419_010755_EX1402L3_MB.all.mb58.gz 55.77MB Kongsberg multibeam vendor format
0112_20140419_020949_EX1402L3_MB.all.mb58.gz 4.93MB Kongsberg multibeam vendor format
0113_20140419_021512_EX1402L3_MB.all.mb58.gz 110.54MB Kongsberg multibeam vendor format
0114_20140419_041506_EX1402L3_MB.all.mb58.gz 22.83MB Kongsberg multibeam vendor format
0115_20140419_043918_EX1402L3_MB.all.mb58.gz 5.22MB Kongsberg multibeam vendor format
0116_20140419_044450_EX1402L3_MB.all.mb58.gz 113.48MB Kongsberg multibeam vendor format
0117_20140419_064453_EX1402L3_MB.all.mb58.gz 111.63MB Kongsberg multibeam vendor format
0118_20140419_084035_EX1402L3_MB.all.mb58.gz 7.62MB Kongsberg multibeam vendor format
0119_20140419_084822_EX1402L3_MB.all.mb58.gz 48.83MB Kongsberg multibeam vendor format
0120_20140419_093916_EX1402L3_MB.all.mb58.gz 3.93MB Kongsberg multibeam vendor format
0121_20140419_094319_EX1402L3_MB.all.mb58.gz 54.34MB Kongsberg multibeam vendor format
0122_20140419_230840_EX1402L3_MB.all.mb58.gz 7.06MB Kongsberg multibeam vendor format
0123_20140419_231558_EX1402L3_MB.all.mb58.gz 8.92MB Kongsberg multibeam vendor format
0124_20140419_232507_EX1402L3_MB.all.mb58.gz 37.58MB Kongsberg multibeam vendor format
0125_20140420_000341_EX1402L3_MB.all.mb58.gz 114.30MB Kongsberg multibeam vendor format
0126_20140420_020341_EX1402L3_MB.all.mb58.gz 70.82MB Kongsberg multibeam vendor format
0127_20140420_031949_EX1402L3_MB.all.mb58.gz 14.39MB Kongsberg multibeam vendor format
0128_20140420_033514_EX1402L3_MB.all.mb58.gz 112.08MB Kongsberg multibeam vendor format
0129_20140420_053513_EX1402L3_MB.all.mb58.gz 34.89MB Kongsberg multibeam vendor format
0130_20140420_061154_EX1402L3_MB.all.mb58.gz 3.33MB Kongsberg multibeam vendor format
0131_20140420_061521_EX1402L3_MB.all.mb58.gz 11.52MB Kongsberg multibeam vendor format
0132_20140420_062730_EX1402L3_MB.all.mb58.gz 111.55MB Kongsberg multibeam vendor format
0133_20140420_082735_EX1402L3_MB.all.mb58.gz 107.02MB Kongsberg multibeam vendor format
0134_20140420_102734_EX1402L3_MB.all.mb58.gz 10.41MB Kongsberg multibeam vendor format
0135_20140420_103917_EX1402L3_MB.all.mb58.gz 1.12MB Kongsberg multibeam vendor format
0136_20140420_104029_EX1402L3_MB.all.mb58.gz 37.49MB Kongsberg multibeam vendor format
0137_20140420_223857_EX1402L3_MB.all.mb58.gz 5.07MB Kongsberg multibeam vendor format
0138_20140420_224419_EX1402L3_MB.all.mb58.gz 103.06MB Kongsberg multibeam vendor format
0139_20140421_003808_EX1402L3_MB.all.mb58.gz 108.36MB Kongsberg multibeam vendor format
0140_20140421_023808_EX1402L3_MB.all.mb58.gz 107.87MB Kongsberg multibeam vendor format
0141_20140421_043805_EX1402L3_MB.all.mb58.gz 76.44MB Kongsberg multibeam vendor format
0142_20140421_060326_EX1402L3_MB.all.mb58.gz 1.74MB Kongsberg multibeam vendor format
0143_20140421_060523_EX1402L3_MB.all.mb58.gz 7.04MB Kongsberg multibeam vendor format
0145_20140421_061318_EX1402L3_MB.all.mb58.gz 123.0KB Kongsberg multibeam vendor format
0146_20140421_061326_EX1402L3_MB.all.mb58.gz 43.34MB Kongsberg multibeam vendor format
0147_20140421_070232_EX1402L3_MB.all.mb58.gz 3.89MB Kongsberg multibeam vendor format
0148_20140421_070658_EX1402L3_MB.all.mb58.gz 74.08MB Kongsberg multibeam vendor format
0149_20140421_083225_EX1402L3_MB.all.mb58.gz 6.38MB Kongsberg multibeam vendor format
0150_20140421_083930_EX1402L3_MB.all.mb58.gz 17.75MB Kongsberg multibeam vendor format
0151_20140421_085943_EX1402L3_MB.all.mb58.gz 6.94MB Kongsberg multibeam vendor format
0152_20140421_090727_EX1402L3_MB.all.mb58.gz 66.00MB Kongsberg multibeam vendor format
0153_20140421_102334_EX1402L3_MB.all.mb58.gz 5.96MB Kongsberg multibeam vendor format
0154_20140421_103016_EX1402L3_MB.all.mb58.gz 17.40MB Kongsberg multibeam vendor format
0155_20140421_105041_EX1402L3_MB.all.mb58.gz 5.61MB Kongsberg multibeam vendor format
0156_20140421_105707_EX1402L3_MB.all.mb58.gz 28.67MB Kongsberg multibeam vendor format
0157_20140421_230828_EX1402L3_MB.all.mb58.gz 27.90MB Kongsberg multibeam vendor format
0158_20140421_234530_EX1402L3_MB.all.mb58.gz 5.28MB Kongsberg multibeam vendor format
0159_20140421_235229_EX1402L3_MB.all.mb58.gz 5.63MB Kongsberg multibeam vendor format
0160_20140422_000006_EX1402L3_MB.all.mb58.gz 100.48MB Kongsberg multibeam vendor format
0161_20140422_020001_EX1402L3_MB.all.mb58.gz 87.34MB Kongsberg multibeam vendor format
0162_20140422_034949_EX1402L3_MB.all.mb58.gz 14.08MB Kongsberg multibeam vendor format
0163_20140422_040855_EX1402L3_MB.all.mb58.gz 99.46MB Kongsberg multibeam vendor format
0164_20140422_060858_EX1402L3_MB.all.mb58.gz 58.27MB Kongsberg multibeam vendor format
0165_20140422_071540_EX1402L3_MB.all.mb58.gz 16.09MB Kongsberg multibeam vendor format
0166_20140422_073354_EX1402L3_MB.all.mb58.gz 82.24MB Kongsberg multibeam vendor format
0167_20140422_090751_EX1402L3_MB.all.mb58.gz 14.36MB Kongsberg multibeam vendor format
0168_20140422_092412_EX1402L3_MB.all.mb58.gz 104.12MB Kongsberg multibeam vendor format
0169_20140422_112411_EX1402L3_MB.all.mb58.gz 10.34MB Kongsberg multibeam vendor format
0170_20140423_003414_EX1402L3_MB.all.mb58.gz 19.56MB Kongsberg multibeam vendor format
0171_20140423_010013_EX1402L3_MB.all.mb58.gz 2.15MB Kongsberg multibeam vendor format
0172_20140423_010301_EX1402L3_MB.all.mb58.gz 102.37MB Kongsberg multibeam vendor format
0173_20140423_030301_EX1402L3_MB.all.mb58.gz 103.83MB Kongsberg multibeam vendor format
0174_20140423_050259_EX1402L3_MB.all.mb58.gz 4.15MB Kongsberg multibeam vendor format
0175_20140423_050748_EX1402L3_MB.all.mb58.gz 2.30MB Kongsberg multibeam vendor format
0176_20140423_051029_EX1402L3_MB.all.mb58.gz 9.72MB Kongsberg multibeam vendor format
0177_20140423_052341_EX1402L3_MB.all.mb58.gz 0.97MB Kongsberg multibeam vendor format
0178_20140423_052500_EX1402L3_MB.all.mb58.gz 63.13MB Kongsberg multibeam vendor format
0179_20140423_064956_EX1402L3_MB.all.mb58.gz 3.53MB Kongsberg multibeam vendor format
0180_20140423_065356_EX1402L3_MB.all.mb58.gz 10.87MB Kongsberg multibeam vendor format
0181_20140423_070620_EX1402L3_MB.all.mb58.gz 3.23MB Kongsberg multibeam vendor format
0182_20140423_071001_EX1402L3_MB.all.mb58.gz 60.04MB Kongsberg multibeam vendor format
0183_20140423_082727_EX1402L3_MB.all.mb58.gz 2.88MB Kongsberg multibeam vendor format
0184_20140423_083123_EX1402L3_MB.all.mb58.gz 8.83MB Kongsberg multibeam vendor format
0185_20140423_084337_EX1402L3_MB.all.mb58.gz 69.11MB Kongsberg multibeam vendor format
0186_20140423_101136_EX1402L3_MB.all.mb58.gz 5.80MB Kongsberg multibeam vendor format
0187_20140423_101806_EX1402L3_MB.all.mb58.gz 28.38MB Kongsberg multibeam vendor format
0188_20140423_105113_EX1402L3_MB.all.mb58.gz 2.00MB Kongsberg multibeam vendor format
0189_20140423_105330_EX1402L3_MB.all.mb58.gz 29.27MB Kongsberg multibeam vendor format
0190_20140423_221909_EX1402L3_MB.all.mb58.gz 92.41MB Kongsberg multibeam vendor format
0191_20140424_000558_EX1402L3_MB.all.mb58.gz 106.33MB Kongsberg multibeam vendor format
0192_20140424_020557_EX1402L3_MB.all.mb58.gz 55.75MB Kongsberg multibeam vendor format
0193_20140424_030526_EX1402L3_MB.all.mb58.gz 3.76MB Kongsberg multibeam vendor format
0194_20140424_030918_EX1402L3_MB.all.mb58.gz 37.85MB Kongsberg multibeam vendor format
0195_20140424_035101_EX1402L3_MB.all.mb58.gz 6.78MB Kongsberg multibeam vendor format
0196_20140424_035835_EX1402L3_MB.all.mb58.gz 32.94MB Kongsberg multibeam vendor format
0197_20140424_043548_EX1402L3_MB.all.mb58.gz 6.40MB Kongsberg multibeam vendor format
0198_20140424_044225_EX1402L3_MB.all.mb58.gz 50.83MB Kongsberg multibeam vendor format
0199_20140424_053441_EX1402L3_MB.all.mb58.gz 9.09MB Kongsberg multibeam vendor format
0200_20140424_054356_EX1402L3_MB.all.mb58.gz 52.99MB Kongsberg multibeam vendor format
0201_20140424_063811_EX1402L3_MB.all.mb58.gz 7.99MB Kongsberg multibeam vendor format
0202_20140424_064624_EX1402L3_MB.all.mb58.gz 58.12MB Kongsberg multibeam vendor format
0203_20140424_074532_EX1402L3_MB.all.mb58.gz 3.17MB Kongsberg multibeam vendor format
0204_20140424_074843_EX1402L3_MB.all.mb58.gz 1.33MB Kongsberg multibeam vendor format
0205_20140424_075003_EX1402L3_MB.all.mb58.gz 5.03MB Kongsberg multibeam vendor format
0206_20140424_075509_EX1402L3_MB.all.mb58.gz 41.73MB Kongsberg multibeam vendor format
0207_20140424_084018_EX1402L3_MB.all.mb58.gz 59.42MB Kongsberg multibeam vendor format
0208_20140424_094659_EX1402L3_MB.all.mb58.gz 24.25MB Kongsberg multibeam vendor format
0209_20140424_101418_EX1402L3_MB.all.mb58.gz 35.98MB Kongsberg multibeam vendor format
0210_20140425_021036_EX1402L3_MB.all.mb58.gz 107.07MB Kongsberg multibeam vendor format
0211_20140425_041041_EX1402L3_MB.all.mb58.gz 103.97MB Kongsberg multibeam vendor format
0212_20140425_061038_EX1402L3_MB.all.mb58.gz 102.88MB Kongsberg multibeam vendor format
0213_20140425_081043_EX1402L3_MB.all.mb58.gz 102.15MB Kongsberg multibeam vendor format
0214_20140425_101044_EX1402L3_MB.all.mb58.gz 102.67MB Kongsberg multibeam vendor format
0215_20140425_121039_EX1402L3_MB.all.mb58.gz 103.90MB Kongsberg multibeam vendor format
0216_20140425_141043_EX1402L3_MB.all.mb58.gz 103.50MB Kongsberg multibeam vendor format
0217_20140425_161043_EX1402L3_MB.all.mb58.gz 102.84MB Kongsberg multibeam vendor format
0218_20140425_181038_EX1402L3_MB.all.mb58.gz 102.34MB Kongsberg multibeam vendor format
0219_20140425_201040_EX1402L3_MB.all.mb58.gz 102.52MB Kongsberg multibeam vendor format
0220_20140425_221045_EX1402L3_MB.all.mb58.gz 92.24MB Kongsberg multibeam vendor format
0221_20140426_001039_EX1402L3_MB.all.mb58.gz 22.43MB Kongsberg multibeam vendor format
0222_20140426_004117_EX1402L3_MB.all.mb58.gz 87.70MB Kongsberg multibeam vendor format
0223_20140426_024117_EX1402L3_MB.all.mb58.gz 87.50MB Kongsberg multibeam vendor format
0224_20140426_044117_EX1402L3_MB.all.mb58.gz 87.11MB Kongsberg multibeam vendor format
0225_20140426_064115_EX1402L3_MB.all.mb58.gz 75.32MB Kongsberg multibeam vendor format
0226_20140426_082329_EX1402L3_MB.all.mb58.gz 0.78MB Kongsberg multibeam vendor format
0227_20140426_085252_EX1402L3_MB.all.mb58.gz 41.43MB Kongsberg multibeam vendor format
0228_20140426_094017_EX1402L3_MB.all.mb58.gz 2.36MB Kongsberg multibeam vendor format
0229_20140426_094258_EX1402L3_MB.all.mb58.gz 52.17MB Kongsberg multibeam vendor format
0230_20140426_104035_EX1402L3_MB.all.mb58.gz 4.16MB Kongsberg multibeam vendor format
0231_20140426_104501_EX1402L3_MB.all.mb58.gz 36.05MB Kongsberg multibeam vendor format
0232_20140426_222319_EX1402L3_MB.all.mb58.gz 29.15MB Kongsberg multibeam vendor format
0233_20140426_230006_EX1402L3_MB.all.mb58.gz 45.57MB Kongsberg multibeam vendor format
0234_20140427_000324_EX1402L3_MB.all.mb58.gz 24.76MB Kongsberg multibeam vendor format
0235_20140427_003746_EX1402L3_MB.all.mb58.gz 10.18MB Kongsberg multibeam vendor format
0236_20140427_005142_EX1402L3_MB.all.mb58.gz 2.35MB Kongsberg multibeam vendor format
0237_20140427_005455_EX1402L3_MB.all.mb58.gz 72.16MB Kongsberg multibeam vendor format
0238_20140427_023306_EX1402L3_MB.all.mb58.gz 19.39MB Kongsberg multibeam vendor format
0239_20140427_025447_EX1402L3_MB.all.mb58.gz 5.06MB Kongsberg multibeam vendor format
0240_20140427_030040_EX1402L3_MB.all.mb58.gz 73.11MB Kongsberg multibeam vendor format
0241_20140427_043955_EX1402L3_MB.all.mb58.gz 10.65MB Kongsberg multibeam vendor format
0242_20140427_045422_EX1402L3_MB.all.mb58.gz 87.28MB Kongsberg multibeam vendor format
0243_20140427_065421_EX1402L3_MB.all.mb58.gz 84.87MB Kongsberg multibeam vendor format
0244_20140427_085101_EX1402L3_MB.all.mb58.gz 22.02MB Kongsberg multibeam vendor format
0245_20140427_091824_EX1402L3_MB.all.mb58.gz 84.61MB Kongsberg multibeam vendor format
0246_20140427_105411_EX1402L3_MB.all.mb58.gz 1.72MB Kongsberg multibeam vendor format
0247_20140427_105600_EX1402L3_MB.all.mb58.gz 23.74MB Kongsberg multibeam vendor format
0248_20140427_112307_EX1402L3_MB.all.mb58.gz 6.29MB Kongsberg multibeam vendor format
0249_20140427_113132_EX1402L3_MB.all.mb58.gz 8.70MB Kongsberg multibeam vendor format
0250_20140428_022629_EX1402L3_MB.all.mb58.gz 3.29MB Kongsberg multibeam vendor format
0251_20140428_023100_EX1402L3_MB.all.mb58.gz 20.33MB Kongsberg multibeam vendor format
0252_20140428_025814_EX1402L3_MB.all.mb58.gz 4.30MB Kongsberg multibeam vendor format
0253_20140428_030318_EX1402L3_MB.all.mb58.gz 38.43MB Kongsberg multibeam vendor format
0254_20140428_035520_EX1402L3_MB.all.mb58.gz 4.93MB Kongsberg multibeam vendor format
0255_20140428_040157_EX1402L3_MB.all.mb58.gz 27.49MB Kongsberg multibeam vendor format
0256_20140428_043402_EX1402L3_MB.all.mb58.gz 14.08MB Kongsberg multibeam vendor format
0257_20140428_044859_EX1402L3_MB.all.mb58.gz 40.87MB Kongsberg multibeam vendor format
0258_20140428_053253_EX1402L3_MB.all.mb58.gz 10.93MB Kongsberg multibeam vendor format
0259_20140428_054603_EX1402L3_MB.all.mb58.gz 77.14MB Kongsberg multibeam vendor format
0260_20140428_065936_EX1402L3_MB.all.mb58.gz 3.34MB Kongsberg multibeam vendor format
0261_20140428_070132_EX1402L3_MB.all.mb58.gz 161.95MB Kongsberg multibeam vendor format
0262_20140428_083540_EX1402L3_MB.all.mb58.gz 37.39MB Kongsberg multibeam vendor format
0263_20140428_085613_EX1402L3_MB.all.mb58.gz 6.33MB Kongsberg multibeam vendor format
0264_20140428_085926_EX1402L3_MB.all.mb58.gz 12.22MB Kongsberg multibeam vendor format
0265_20140428_090541_EX1402L3_MB.all.mb58.gz 34.34MB Kongsberg multibeam vendor format
0266_20140428_092301_EX1402L3_MB.all.mb58.gz 197.11MB Kongsberg multibeam vendor format
0267_20140428_111053_EX1402L3_MB.all.mb58.gz 10.02MB Kongsberg multibeam vendor format
0268_20140428_111622_EX1402L3_MB.all.mb58.gz 30.57MB Kongsberg multibeam vendor format
0269_20140428_222434_EX1402L3_MB.all.mb58.gz 75.25MB Kongsberg multibeam vendor format
0270_20140428_230505_EX1402L3_MB.all.mb58.gz 3.55MB Kongsberg multibeam vendor format
0271_20140428_230650_EX1402L3_MB.all.mb58.gz 143.23MB Kongsberg multibeam vendor format
0272_20140429_002031_EX1402L3_MB.all.mb58.gz 162.72MB Kongsberg multibeam vendor format
0273_20140429_014346_EX1402L3_MB.all.mb58.gz 4.27MB Kongsberg multibeam vendor format
0274_20140429_014553_EX1402L3_MB.all.mb58.gz 5.97MB Kongsberg multibeam vendor format
0275_20140429_014851_EX1402L3_MB.all.mb58.gz 8.13MB Kongsberg multibeam vendor format
0276_20140429_015253_EX1402L3_MB.all.mb58.gz 250.26MB Kongsberg multibeam vendor format
0277_20140429_035253_EX1402L3_MB.all.mb58.gz 58.22MB Kongsberg multibeam vendor format
0278_20140429_042210_EX1402L3_MB.all.mb58.gz 4.15MB Kongsberg multibeam vendor format
0279_20140429_042414_EX1402L3_MB.all.mb58.gz 3.25MB Kongsberg multibeam vendor format
0280_20140429_042551_EX1402L3_MB.all.mb58.gz 6.58MB Kongsberg multibeam vendor format
0281_20140429_042902_EX1402L3_MB.all.mb58.gz 251.55MB Kongsberg multibeam vendor format
0282_20140429_062903_EX1402L3_MB.all.mb58.gz 67.10MB Kongsberg multibeam vendor format
0283_20140429_070045_EX1402L3_MB.all.mb58.gz 3.19MB Kongsberg multibeam vendor format
0284_20140429_070215_EX1402L3_MB.all.mb58.gz 7.80MB Kongsberg multibeam vendor format
0285_20140429_070551_EX1402L3_MB.all.mb58.gz 3.59MB Kongsberg multibeam vendor format
0286_20140429_070730_EX1402L3_MB.all.mb58.gz 255.21MB Kongsberg multibeam vendor format
0287_20140429_090731_EX1402L3_MB.all.mb58.gz 94.42MB Kongsberg multibeam vendor format
0288_20140429_095235_EX1402L3_MB.all.mb58.gz 8.77MB Kongsberg multibeam vendor format
0289_20140429_095646_EX1402L3_MB.all.mb58.gz 174.22MB Kongsberg multibeam vendor format
0290_20140429_222205_EX1402L3_MB.all.mb58.gz 49.56MB Kongsberg multibeam vendor format
0291_20140429_224548_EX1402L3_MB.all.mb58.gz 10.17MB Kongsberg multibeam vendor format
0292_20140429_225018_EX1402L3_MB.all.mb58.gz 164.67MB Kongsberg multibeam vendor format
0293_20140430_000326_EX1402L3_MB.all.mb58.gz 62.45MB Kongsberg multibeam vendor format
0294_20140430_003155_EX1402L3_MB.all.mb58.gz 107.09MB Kongsberg multibeam vendor format
0295_20140430_012124_EX1402L3_MB.all.mb58.gz 4.58MB Kongsberg multibeam vendor format
0296_20140430_012328_EX1402L3_MB.all.mb58.gz 50.46MB Kongsberg multibeam vendor format
0297_20140430_014646_EX1402L3_MB.all.mb58.gz 8.29MB Kongsberg multibeam vendor format
0298_20140430_015042_EX1402L3_MB.all.mb58.gz 240.45MB Kongsberg multibeam vendor format
0299_20140430_035042_EX1402L3_MB.all.mb58.gz 121.58MB Kongsberg multibeam vendor format
0300_20140430_045459_EX1402L3_MB.all.mb58.gz 2.04MB Kongsberg multibeam vendor format
0301_20140430_045605_EX1402L3_MB.all.mb58.gz 2.62MB Kongsberg multibeam vendor format
0302_20140430_045730_EX1402L3_MB.all.mb58.gz 6.63MB Kongsberg multibeam vendor format
0303_20140430_050104_EX1402L3_MB.all.mb58.gz 233.07MB Kongsberg multibeam vendor format
0304_20140430_070104_EX1402L3_MB.all.mb58.gz 75.02MB Kongsberg multibeam vendor format
0305_20140430_073537_EX1402L3_MB.all.mb58.gz 45.02MB Kongsberg multibeam vendor format
0306_20140430_075512_EX1402L3_MB.all.mb58.gz 87.67MB Kongsberg multibeam vendor format
0307_20140430_083342_EX1402L3_MB.all.mb58.gz 14.10MB Kongsberg multibeam vendor format
0308_20140430_084001_EX1402L3_MB.all.mb58.gz 118.28MB Kongsberg multibeam vendor format
0309_20140430_093138_EX1402L3_MB.all.mb58.gz 62.33MB Kongsberg multibeam vendor format
0310_20140430_095815_EX1402L3_MB.all.mb58.gz 35.80MB Kongsberg multibeam vendor format
0311_20140430_101444_EX1402L3_MB.all.mb58.gz 28.43MB Kongsberg multibeam vendor format
0312_20140430_135252_EX1402L3_MB.all.mb58.gz 45.72MB Kongsberg multibeam vendor format
0313_20140430_141354_EX1402L3_MB.all.mb58.gz 252.01MB Kongsberg multibeam vendor format
0314_20140430_161353_EX1402L3_MB.all.mb58.gz 188.33MB Kongsberg multibeam vendor format
0315_20140430_175049_EX1402L3_MB.all.mb58.gz 11.24MB Kongsberg multibeam vendor format
0316_20140430_175638_EX1402L3_MB.all.mb58.gz 126.28MB Kongsberg multibeam vendor format
0317_20140430_190209_EX1402L3_MB.all.mb58.gz 16.34MB Kongsberg multibeam vendor format
0318_20140430_191015_EX1402L3_MB.all.mb58.gz 298.14MB Kongsberg multibeam vendor format
0319_20140430_211014_EX1402L3_MB.all.mb58.gz 455.22MB Kongsberg multibeam vendor format
0320_20140430_231014_EX1402L3_MB.all.mb58.gz 424.36MB Kongsberg multibeam vendor format
0095_20140417_095313_EX1402L3_MB.all.mb58.gz 86.58MB Kongsberg multibeam vendor format
0096_20140417_112225_EX1402L3_MB.all.mb58.gz 3.06MB Kongsberg multibeam vendor format

Full Resolution Bathymetry (processed): 318

Files File Size Description
EX1402L3_Okeanos_March_2011_2014-101_0001_20140411_032832_EX1402L3_MB.txt.mb162 106.53MB Generic XYZ sounding format
EX1402L3_Okeanos_March_2011_2014-101_0002_20140411_052832_EX1402L3_MB.txt.mb162 27.97MB Generic XYZ sounding format
EX1402L3_Okeanos_March_2011_2014-101_0003_20140411_072837_EX1402L3_MB.txt.mb162 9.62MB Generic XYZ sounding format
EX1402L3_Okeanos_March_2011_2014-101_0004_20140411_092834_EX1402L3_MB.txt.mb162 9.16MB Generic XYZ sounding format
EX1402L3_Okeanos_March_2011_2014-101_0005_20140411_112835_EX1402L3_MB.txt.mb162 10.36MB Generic XYZ sounding format
EX1402L3_Okeanos_March_2011_2014-101_0006_20140411_132835_EX1402L3_MB.txt.mb162 17.08MB Generic XYZ sounding format
EX1402L3_Okeanos_March_2011_2014-101_0007_20140411_152833_EX1402L3_MB.txt.mb162 20.09MB Generic XYZ sounding format
EX1402L3_Okeanos_March_2011_2014-101_0008_20140411_172832_EX1402L3_MB.txt.mb162 21.83MB Generic XYZ sounding format
EX1402L3_Okeanos_March_2011_2014-101_0009_20140411_192832_EX1402L3_MB.txt.mb162 21.20MB Generic XYZ sounding format
EX1402L3_Okeanos_March_2011_2014-101_0010_20140411_212834_EX1402L3_MB.txt.mb162 17.88MB Generic XYZ sounding format
EX1402L3_Okeanos_March_2011_2014-101_0011_20140411_232833_EX1402L3_MB.txt.mb162 5.55MB Generic XYZ sounding format
EX1402L3_Okeanos_March_2011_2014-102_0012_20140412_000928_EX1402L3_MB.txt.mb162 20.20MB Generic XYZ sounding format
EX1402L3_Okeanos_March_2011_2014-102_0013_20140412_020928_EX1402L3_MB.txt.mb162 19.65MB Generic XYZ sounding format
EX1402L3_Okeanos_March_2011_2014-102_0014_20140412_040931_EX1402L3_MB.txt.mb162 14.95MB Generic XYZ sounding format
EX1402L3_Okeanos_March_2011_2014-102_0015_20140412_060928_EX1402L3_MB.txt.mb162 15.19MB Generic XYZ sounding format
EX1402L3_Okeanos_March_2011_2014-102_0016_20140412_080931_EX1402L3_MB.txt.mb162 2.40MB Generic XYZ sounding format
EX1402L3_Okeanos_March_2011_2014-102_0017_20140412_083512_EX1402L3_MB.txt.mb162 1.22MB Generic XYZ sounding format
EX1402L3_Okeanos_March_2011_2014-102_0018_20140412_084739_EX1402L3_MB.txt.mb162 5.34MB Generic XYZ sounding format
EX1402L3_Okeanos_March_2011_2014-102_0019_20140412_093615_EX1402L3_MB.txt.mb162 1.07MB Generic XYZ sounding format
EX1402L3_Okeanos_March_2011_2014-102_0020_20140412_094449_EX1402L3_MB.txt.mb162 1.37MB Generic XYZ sounding format
EX1402L3_Okeanos_March_2011_2014-102_0021_20140412_095733_EX1402L3_MB.txt.mb162 1.27MB Generic XYZ sounding format
EX1402L3_Okeanos_March_2011_2014-102_0022_20140412_101029_EX1402L3_MB.txt.mb162 3.68MB Generic XYZ sounding format
EX1402L3_Okeanos_March_2011_2014-102_0023_20140412_104955_EX1402L3_MB.txt.mb162 0.75MB Generic XYZ sounding format
EX1402L3_Okeanos_March_2011_2014-102_0024_20140412_105754_EX1402L3_MB.txt.mb162 2.83MB Generic XYZ sounding format
EX1402L3_Okeanos_March_2011_2014-102_0025_20140412_112523_EX1402L3_MB.txt.mb162 243.2KB Generic XYZ sounding format
EX1402L3_Okeanos_March_2011_2014-103_0026_20140413_005516_EX1402L3_MB.txt.mb162 7.39MB Generic XYZ sounding format
EX1402L3_Okeanos_March_2011_2014-103_0027_20140413_021722_EX1402L3_MB.txt.mb162 0.77MB Generic XYZ sounding format
EX1402L3_Okeanos_March_2011_2014-103_0028_20140413_022605_EX1402L3_MB.txt.mb162 1.25MB Generic XYZ sounding format
EX1402L3_Okeanos_March_2011_2014-103_0029_20140413_024022_EX1402L3_MB.txt.mb162 2.62MB Generic XYZ sounding format
EX1402L3_Okeanos_March_2011_2014-103_0030_20140413_031041_EX1402L3_MB.txt.mb162 8.44MB Generic XYZ sounding format
EX1402L3_Okeanos_March_2011_2014-103_0031_20140413_044550_EX1402L3_MB.txt.mb162 1.32MB Generic XYZ sounding format
EX1402L3_Okeanos_March_2011_2014-103_0032_20140413_050139_EX1402L3_MB.txt.mb162 8.41MB Generic XYZ sounding format
EX1402L3_Okeanos_March_2011_2014-103_0033_20140413_064616_EX1402L3_MB.txt.mb162 1.64MB Generic XYZ sounding format
EX1402L3_Okeanos_March_2011_2014-103_0034_20140413_070524_EX1402L3_MB.txt.mb162 8.59MB Generic XYZ sounding format
EX1402L3_Okeanos_March_2011_2014-103_0035_20140413_084744_EX1402L3_MB.txt.mb162 1.39MB Generic XYZ sounding format
EX1402L3_Okeanos_March_2011_2014-103_0036_20140413_090508_EX1402L3_MB.txt.mb162 8.81MB Generic XYZ sounding format
EX1402L3_Okeanos_March_2011_2014-103_0037_20140413_105646_EX1402L3_MB.txt.mb162 1.25MB Generic XYZ sounding format
EX1402L3_Okeanos_March_2011_2014-103_0038_20140413_111145_EX1402L3_MB.txt.mb162 2.50MB Generic XYZ sounding format
EX1402L3_Okeanos_March_2011_2014-103_0039_20140413_210315_EX1402L3_MB.txt.mb162 0.93MB Generic XYZ sounding format
EX1402L3_Okeanos_March_2011_2014-103_0040_20140413_211325_EX1402L3_MB.txt.mb162 4.43MB Generic XYZ sounding format
EX1402L3_Okeanos_March_2011_2014-103_0041_20140413_220804_EX1402L3_MB.txt.mb162 9.06MB Generic XYZ sounding format
EX1402L3_Okeanos_March_2011_2014-104_0042_20140414_000006_EX1402L3_MB.txt.mb162 10.23MB Generic XYZ sounding format
EX1402L3_Okeanos_March_2011_2014-104_0043_20140414_020007_EX1402L3_MB.txt.mb162 10.88MB Generic XYZ sounding format
EX1402L3_Okeanos_March_2011_2014-104_0044_20140414_040003_EX1402L3_MB.txt.mb162 493.5KB Generic XYZ sounding format
EX1402L3_Okeanos_March_2011_2014-104_0045_20140414_040456_EX1402L3_MB.txt.mb162 1.32MB Generic XYZ sounding format
EX1402L3_Okeanos_March_2011_2014-104_0046_20140414_041942_EX1402L3_MB.txt.mb162 10.94MB Generic XYZ sounding format
EX1402L3_Okeanos_March_2011_2014-104_0047_20140414_061946_EX1402L3_MB.txt.mb162 10.57MB Generic XYZ sounding format
EX1402L3_Okeanos_March_2011_2014-104_0048_20140414_081947_EX1402L3_MB.txt.mb162 7.34MB Generic XYZ sounding format
EX1402L3_Okeanos_March_2011_2014-104_0049_20140414_094814_EX1402L3_MB.txt.mb162 0.78MB Generic XYZ sounding format
EX1402L3_Okeanos_March_2011_2014-104_0050_20140414_095714_EX1402L3_MB.txt.mb162 6.38MB Generic XYZ sounding format
EX1402L3_Okeanos_March_2011_2014-104_0051_20140414_223355_EX1402L3_MB.txt.mb162 0.50MB Generic XYZ sounding format
EX1402L3_Okeanos_March_2011_2014-104_0052_20140414_223954_EX1402L3_MB.txt.mb162 10.90MB Generic XYZ sounding format
EX1402L3_Okeanos_March_2011_2014-105_0053_20140415_003950_EX1402L3_MB.txt.mb162 1.14MB Generic XYZ sounding format
EX1402L3_Okeanos_March_2011_2014-105_0054_20140415_005259_EX1402L3_MB.txt.mb162 9.29MB Generic XYZ sounding format
EX1402L3_Okeanos_March_2011_2014-105_0055_20140415_024708_EX1402L3_MB.txt.mb162 0.60MB Generic XYZ sounding format
EX1402L3_Okeanos_March_2011_2014-105_0056_20140415_025400_EX1402L3_MB.txt.mb162 8.59MB Generic XYZ sounding format
EX1402L3_Okeanos_March_2011_2014-105_0057_20140415_045355_EX1402L3_MB.txt.mb162 1.25MB Generic XYZ sounding format
EX1402L3_Okeanos_March_2011_2014-105_0058_20140415_054653_EX1402L3_MB.txt.mb162 5.85MB Generic XYZ sounding format
EX1402L3_Okeanos_March_2011_2014-105_0059_20140415_074655_EX1402L3_MB.txt.mb162 63.3KB Generic XYZ sounding format
EX1402L3_Okeanos_March_2011_2014-105_0060_20140415_074820_EX1402L3_MB.txt.mb162 128.6KB Generic XYZ sounding format
EX1402L3_Okeanos_March_2011_2014-105_0061_20140415_075602_EX1402L3_MB.txt.mb162 82.9KB Generic XYZ sounding format
EX1402L3_Okeanos_March_2011_2014-105_0062_20140415_083753_EX1402L3_MB.txt.mb162 6.00MB Generic XYZ sounding format
EX1402L3_Okeanos_March_2011_2014-105_0063_20140415_103751_EX1402L3_MB.txt.mb162 4.36MB Generic XYZ sounding format
EX1402L3_Okeanos_March_2011_2014-105_0064_20140415_115730_EX1402L3_MB.txt.mb162 114.1KB Generic XYZ sounding format
EX1402L3_Okeanos_March_2011_2014-105_0066_20140415_185134_EX1402L3_MB.txt.mb162 12.86MB Generic XYZ sounding format
EX1402L3_Okeanos_March_2011_2014-105_0067_20140415_205134_EX1402L3_MB.txt.mb162 10.86MB Generic XYZ sounding format
EX1402L3_Okeanos_March_2011_2014-105_0068_20140415_225136_EX1402L3_MB.txt.mb162 5.58MB Generic XYZ sounding format
EX1402L3_Okeanos_March_2011_2014-106_0069_20140416_002817_EX1402L3_MB.txt.mb162 3.74MB Generic XYZ sounding format
EX1402L3_Okeanos_March_2011_2014-106_0070_20140416_014448_EX1402L3_MB.txt.mb162 5.07MB Generic XYZ sounding format
EX1402L3_Okeanos_March_2011_2014-106_0071_20140416_034448_EX1402L3_MB.txt.mb162 1.04MB Generic XYZ sounding format
EX1402L3_Okeanos_March_2011_2014-106_0072_20140416_040642_EX1402L3_MB.txt.mb162 0.66MB Generic XYZ sounding format
EX1402L3_Okeanos_March_2011_2014-106_0073_20140416_041841_EX1402L3_MB.txt.mb162 6.44MB Generic XYZ sounding format
EX1402L3_Okeanos_March_2011_2014-106_0074_20140416_061841_EX1402L3_MB.txt.mb162 6.42MB Generic XYZ sounding format
EX1402L3_Okeanos_March_2011_2014-106_0075_20140416_081841_EX1402L3_MB.txt.mb162 3.82MB Generic XYZ sounding format
EX1402L3_Okeanos_March_2011_2014-106_0076_20140416_091037_EX1402L3_MB.txt.mb162 9.30MB Generic XYZ sounding format
EX1402L3_Okeanos_March_2011_2014-106_0077_20140416_111032_EX1402L3_MB.txt.mb162 1.53MB Generic XYZ sounding format
EX1402L3_Okeanos_March_2011_2014-106_0078_20140416_223758_EX1402L3_MB.txt.mb162 1.80MB Generic XYZ sounding format
EX1402L3_Okeanos_March_2011_2014-106_0079_20140416_230053_EX1402L3_MB.txt.mb162 406.7KB Generic XYZ sounding format
EX1402L3_Okeanos_March_2011_2014-106_0080_20140416_230547_EX1402L3_MB.txt.mb162 2.20MB Generic XYZ sounding format
EX1402L3_Okeanos_March_2011_2014-106_0081_20140416_233525_EX1402L3_MB.txt.mb162 1.19MB Generic XYZ sounding format
EX1402L3_Okeanos_March_2011_2014-106_0082_20140416_235029_EX1402L3_MB.txt.mb162 2.67MB Generic XYZ sounding format
EX1402L3_Okeanos_March_2011_2014-107_0083_20140417_002349_EX1402L3_MB.txt.mb162 266.4KB Generic XYZ sounding format
EX1402L3_Okeanos_March_2011_2014-107_0084_20140417_002711_EX1402L3_MB.txt.mb162 1.08MB Generic XYZ sounding format
EX1402L3_Okeanos_March_2011_2014-107_0085_20140417_004024_EX1402L3_MB.txt.mb162 4.02MB Generic XYZ sounding format
EX1402L3_Okeanos_March_2011_2014-107_0086_20140417_013303_EX1402L3_MB.txt.mb162 151.0KB Generic XYZ sounding format
EX1402L3_Okeanos_March_2011_2014-107_0087_20140417_013451_EX1402L3_MB.txt.mb162 8.15MB Generic XYZ sounding format
EX1402L3_Okeanos_March_2011_2014-107_0088_20140417_031249_EX1402L3_MB.txt.mb162 0.80MB Generic XYZ sounding format
EX1402L3_Okeanos_March_2011_2014-107_0089_20140417_032136_EX1402L3_MB.txt.mb162 9.31MB Generic XYZ sounding format
EX1402L3_Okeanos_March_2011_2014-107_0090_20140417_051052_EX1402L3_MB.txt.mb162 1.39MB Generic XYZ sounding format
EX1402L3_Okeanos_March_2011_2014-107_0091_20140417_052708_EX1402L3_MB.txt.mb162 9.97MB Generic XYZ sounding format
EX1402L3_Okeanos_March_2011_2014-107_0092_20140417_072706_EX1402L3_MB.txt.mb162 9.90MB Generic XYZ sounding format
EX1402L3_Okeanos_March_2011_2014-107_0093_20140417_092708_EX1402L3_MB.txt.mb162 1.32MB Generic XYZ sounding format
EX1402L3_Okeanos_March_2011_2014-107_0094_20140417_094341_EX1402L3_MB.txt.mb162 0.83MB Generic XYZ sounding format
EX1402L3_Okeanos_March_2011_2014-108_0097_20140418_014108_EX1402L3_MB.txt.mb162 2.49MB Generic XYZ sounding format
EX1402L3_Okeanos_March_2011_2014-108_0098_20140418_022140_EX1402L3_MB.txt.mb162 10.27MB Generic XYZ sounding format
EX1402L3_Okeanos_March_2011_2014-108_0099_20140418_042140_EX1402L3_MB.txt.mb162 9.42MB Generic XYZ sounding format
EX1402L3_Okeanos_March_2011_2014-108_0100_20140418_062143_EX1402L3_MB.txt.mb162 1.54MB Generic XYZ sounding format
EX1402L3_Okeanos_March_2011_2014-108_0101_20140418_064551_EX1402L3_MB.txt.mb162 489.9KB Generic XYZ sounding format
EX1402L3_Okeanos_March_2011_2014-108_0102_20140418_065714_EX1402L3_MB.txt.mb162 1.66MB Generic XYZ sounding format
EX1402L3_Okeanos_March_2011_2014-108_0103_20140418_074819_EX1402L3_MB.txt.mb162 326.1KB Generic XYZ sounding format
EX1402L3_Okeanos_March_2011_2014-108_0104_20140418_075250_EX1402L3_MB.txt.mb162 0.60MB Generic XYZ sounding format
EX1402L3_Okeanos_March_2011_2014-108_0105_20140418_080049_EX1402L3_MB.txt.mb162 6.42MB Generic XYZ sounding format
EX1402L3_Okeanos_March_2011_2014-108_0106_20140418_093109_EX1402L3_MB.txt.mb162 326.2KB Generic XYZ sounding format
EX1402L3_Okeanos_March_2011_2014-108_0107_20140418_093528_EX1402L3_MB.txt.mb162 8.54MB Generic XYZ sounding format
EX1402L3_Okeanos_March_2011_2014-108_0108_20140418_222756_EX1402L3_MB.txt.mb162 7.66MB Generic XYZ sounding format
EX1402L3_Okeanos_March_2011_2014-109_0109_20140419_001711_EX1402L3_MB.txt.mb162 2.96MB Generic XYZ sounding format
EX1402L3_Okeanos_March_2011_2014-109_0110_20140419_005922_EX1402L3_MB.txt.mb162 316.3KB Generic XYZ sounding format
EX1402L3_Okeanos_March_2011_2014-109_0111_20140419_010755_EX1402L3_MB.txt.mb162 4.19MB Generic XYZ sounding format
EX1402L3_Okeanos_March_2011_2014-109_0112_20140419_020949_EX1402L3_MB.txt.mb162 312.9KB Generic XYZ sounding format
EX1402L3_Okeanos_March_2011_2014-109_0113_20140419_021512_EX1402L3_MB.txt.mb162 7.91MB Generic XYZ sounding format
EX1402L3_Okeanos_March_2011_2014-109_0114_20140419_041506_EX1402L3_MB.txt.mb162 1.65MB Generic XYZ sounding format
EX1402L3_Okeanos_March_2011_2014-109_0115_20140419_043918_EX1402L3_MB.txt.mb162 397.7KB Generic XYZ sounding format
EX1402L3_Okeanos_March_2011_2014-109_0116_20140419_044450_EX1402L3_MB.txt.mb162 8.66MB Generic XYZ sounding format
EX1402L3_Okeanos_March_2011_2014-109_0117_20140419_064453_EX1402L3_MB.txt.mb162 9.11MB Generic XYZ sounding format
EX1402L3_Okeanos_March_2011_2014-109_0118_20140419_084035_EX1402L3_MB.txt.mb162 471.3KB Generic XYZ sounding format
EX1402L3_Okeanos_March_2011_2014-109_0119_20140419_084822_EX1402L3_MB.txt.mb162 3.74MB Generic XYZ sounding format
EX1402L3_Okeanos_March_2011_2014-109_0120_20140419_093916_EX1402L3_MB.txt.mb162 329.2KB Generic XYZ sounding format
EX1402L3_Okeanos_March_2011_2014-109_0121_20140419_094319_EX1402L3_MB.txt.mb162 4.59MB Generic XYZ sounding format
EX1402L3_Okeanos_March_2011_2014-109_0122_20140419_230840_EX1402L3_MB.txt.mb162 0.57MB Generic XYZ sounding format
EX1402L3_Okeanos_March_2011_2014-109_0123_20140419_231558_EX1402L3_MB.txt.mb162 0.75MB Generic XYZ sounding format
EX1402L3_Okeanos_March_2011_2014-109_0124_20140419_232507_EX1402L3_MB.txt.mb162 3.22MB Generic XYZ sounding format
EX1402L3_Okeanos_March_2011_2014-110_0125_20140420_000341_EX1402L3_MB.txt.mb162 9.25MB Generic XYZ sounding format
EX1402L3_Okeanos_March_2011_2014-110_0126_20140420_020341_EX1402L3_MB.txt.mb162 5.27MB Generic XYZ sounding format
EX1402L3_Okeanos_March_2011_2014-110_0127_20140420_031949_EX1402L3_MB.txt.mb162 1.10MB Generic XYZ sounding format
EX1402L3_Okeanos_March_2011_2014-110_0128_20140420_033514_EX1402L3_MB.txt.mb162 8.55MB Generic XYZ sounding format
EX1402L3_Okeanos_March_2011_2014-110_0129_20140420_053513_EX1402L3_MB.txt.mb162 2.85MB Generic XYZ sounding format
EX1402L3_Okeanos_March_2011_2014-110_0130_20140420_061154_EX1402L3_MB.txt.mb162 291.0KB Generic XYZ sounding format
EX1402L3_Okeanos_March_2011_2014-110_0131_20140420_061521_EX1402L3_MB.txt.mb162 0.94MB Generic XYZ sounding format
EX1402L3_Okeanos_March_2011_2014-110_0132_20140420_062730_EX1402L3_MB.txt.mb162 8.74MB Generic XYZ sounding format
EX1402L3_Okeanos_March_2011_2014-110_0133_20140420_082735_EX1402L3_MB.txt.mb162 8.07MB Generic XYZ sounding format
EX1402L3_Okeanos_March_2011_2014-110_0134_20140420_102734_EX1402L3_MB.txt.mb162 0.80MB Generic XYZ sounding format
EX1402L3_Okeanos_March_2011_2014-110_0135_20140420_103917_EX1402L3_MB.txt.mb162 96.1KB Generic XYZ sounding format
EX1402L3_Okeanos_March_2011_2014-110_0136_20140420_104029_EX1402L3_MB.txt.mb162 2.68MB Generic XYZ sounding format
EX1402L3_Okeanos_March_2011_2014-110_0137_20140420_223857_EX1402L3_MB.txt.mb162 445.3KB Generic XYZ sounding format
EX1402L3_Okeanos_March_2011_2014-110_0138_20140420_224419_EX1402L3_MB.txt.mb162 7.85MB Generic XYZ sounding format
EX1402L3_Okeanos_March_2011_2014-111_0139_20140421_003808_EX1402L3_MB.txt.mb162 8.17MB Generic XYZ sounding format
EX1402L3_Okeanos_March_2011_2014-111_0140_20140421_023808_EX1402L3_MB.txt.mb162 8.19MB Generic XYZ sounding format
EX1402L3_Okeanos_March_2011_2014-111_0141_20140421_043805_EX1402L3_MB.txt.mb162 5.78MB Generic XYZ sounding format
EX1402L3_Okeanos_March_2011_2014-111_0142_20140421_060326_EX1402L3_MB.txt.mb162 136.7KB Generic XYZ sounding format
EX1402L3_Okeanos_March_2011_2014-111_0143_20140421_060523_EX1402L3_MB.txt.mb162 500.3KB Generic XYZ sounding format
EX1402L3_Okeanos_March_2011_2014-111_0145_20140421_061318_EX1402L3_MB.txt.mb162 8.7KB Generic XYZ sounding format
EX1402L3_Okeanos_March_2011_2014-111_0146_20140421_061326_EX1402L3_MB.txt.mb162 3.04MB Generic XYZ sounding format
EX1402L3_Okeanos_March_2011_2014-111_0147_20140421_070232_EX1402L3_MB.txt.mb162 288.5KB Generic XYZ sounding format
EX1402L3_Okeanos_March_2011_2014-111_0148_20140421_070658_EX1402L3_MB.txt.mb162 5.27MB Generic XYZ sounding format
EX1402L3_Okeanos_March_2011_2014-111_0149_20140421_083225_EX1402L3_MB.txt.mb162 498.1KB Generic XYZ sounding format
EX1402L3_Okeanos_March_2011_2014-111_0150_20140421_083930_EX1402L3_MB.txt.mb162 1.23MB Generic XYZ sounding format
EX1402L3_Okeanos_March_2011_2014-111_0151_20140421_085943_EX1402L3_MB.txt.mb162 0.51MB Generic XYZ sounding format
EX1402L3_Okeanos_March_2011_2014-111_0152_20140421_090727_EX1402L3_MB.txt.mb162 4.54MB Generic XYZ sounding format
EX1402L3_Okeanos_March_2011_2014-111_0153_20140421_102334_EX1402L3_MB.txt.mb162 444.3KB Generic XYZ sounding format
EX1402L3_Okeanos_March_2011_2014-111_0154_20140421_103016_EX1402L3_MB.txt.mb162 1.18MB Generic XYZ sounding format
EX1402L3_Okeanos_March_2011_2014-111_0155_20140421_105041_EX1402L3_MB.txt.mb162 374.7KB Generic XYZ sounding format
EX1402L3_Okeanos_March_2011_2014-111_0156_20140421_105707_EX1402L3_MB.txt.mb162 1.63MB Generic XYZ sounding format
EX1402L3_Okeanos_March_2011_2014-111_0157_20140421_230828_EX1402L3_MB.txt.mb162 1.41MB Generic XYZ sounding format
EX1402L3_Okeanos_March_2011_2014-111_0158_20140421_234530_EX1402L3_MB.txt.mb162 236.8KB Generic XYZ sounding format
EX1402L3_Okeanos_March_2011_2014-111_0159_20140421_235229_EX1402L3_MB.txt.mb162 261.2KB Generic XYZ sounding format
EX1402L3_Okeanos_March_2011_2014-112_0160_20140422_000006_EX1402L3_MB.txt.mb162 6.92MB Generic XYZ sounding format
EX1402L3_Okeanos_March_2011_2014-112_0161_20140422_020001_EX1402L3_MB.txt.mb162 5.14MB Generic XYZ sounding format
EX1402L3_Okeanos_March_2011_2014-112_0162_20140422_034949_EX1402L3_MB.txt.mb162 0.54MB Generic XYZ sounding format
EX1402L3_Okeanos_March_2011_2014-112_0163_20140422_040855_EX1402L3_MB.txt.mb162 6.43MB Generic XYZ sounding format
EX1402L3_Okeanos_March_2011_2014-112_0164_20140422_060858_EX1402L3_MB.txt.mb162 4.08MB Generic XYZ sounding format
EX1402L3_Okeanos_March_2011_2014-112_0165_20140422_071540_EX1402L3_MB.txt.mb162 1.20MB Generic XYZ sounding format
EX1402L3_Okeanos_March_2011_2014-112_0166_20140422_073354_EX1402L3_MB.txt.mb162 6.04MB Generic XYZ sounding format
EX1402L3_Okeanos_March_2011_2014-112_0167_20140422_090751_EX1402L3_MB.txt.mb162 1.09MB Generic XYZ sounding format
EX1402L3_Okeanos_March_2011_2014-112_0168_20140422_092412_EX1402L3_MB.txt.mb162 7.48MB Generic XYZ sounding format
EX1402L3_Okeanos_March_2011_2014-112_0169_20140422_112411_EX1402L3_MB.txt.mb162 0.56MB Generic XYZ sounding format
EX1402L3_Okeanos_March_2011_2014-113_0170_20140423_003414_EX1402L3_MB.txt.mb162 1.02MB Generic XYZ sounding format
EX1402L3_Okeanos_March_2011_2014-113_0171_20140423_010013_EX1402L3_MB.txt.mb162 120.2KB Generic XYZ sounding format
EX1402L3_Okeanos_March_2011_2014-113_0172_20140423_010301_EX1402L3_MB.txt.mb162 7.24MB Generic XYZ sounding format
EX1402L3_Okeanos_March_2011_2014-113_0173_20140423_030301_EX1402L3_MB.txt.mb162 7.54MB Generic XYZ sounding format
EX1402L3_Okeanos_March_2011_2014-113_0174_20140423_050259_EX1402L3_MB.txt.mb162 323.0KB Generic XYZ sounding format
EX1402L3_Okeanos_March_2011_2014-113_0175_20140423_050748_EX1402L3_MB.txt.mb162 146.6KB Generic XYZ sounding format
EX1402L3_Okeanos_March_2011_2014-113_0176_20140423_051029_EX1402L3_MB.txt.mb162 449.0KB Generic XYZ sounding format
EX1402L3_Okeanos_March_2011_2014-113_0177_20140423_052341_EX1402L3_MB.txt.mb162 41.7KB Generic XYZ sounding format
EX1402L3_Okeanos_March_2011_2014-113_0178_20140423_052500_EX1402L3_MB.txt.mb162 3.14MB Generic XYZ sounding format
EX1402L3_Okeanos_March_2011_2014-113_0179_20140423_064956_EX1402L3_MB.txt.mb162 274.4KB Generic XYZ sounding format
EX1402L3_Okeanos_March_2011_2014-113_0180_20140423_065356_EX1402L3_MB.txt.mb162 0.86MB Generic XYZ sounding format
EX1402L3_Okeanos_March_2011_2014-113_0181_20140423_070620_EX1402L3_MB.txt.mb162 257.1KB Generic XYZ sounding format
EX1402L3_Okeanos_March_2011_2014-113_0182_20140423_071001_EX1402L3_MB.txt.mb162 3.43MB Generic XYZ sounding format
EX1402L3_Okeanos_March_2011_2014-113_0183_20140423_082727_EX1402L3_MB.txt.mb162 113.3KB Generic XYZ sounding format
EX1402L3_Okeanos_March_2011_2014-113_0184_20140423_083123_EX1402L3_MB.txt.mb162 341.4KB Generic XYZ sounding format
EX1402L3_Okeanos_March_2011_2014-113_0185_20140423_084337_EX1402L3_MB.txt.mb162 4.08MB Generic XYZ sounding format
EX1402L3_Okeanos_March_2011_2014-113_0186_20140423_101136_EX1402L3_MB.txt.mb162 455.4KB Generic XYZ sounding format
EX1402L3_Okeanos_March_2011_2014-113_0187_20140423_101806_EX1402L3_MB.txt.mb162 2.12MB Generic XYZ sounding format
EX1402L3_Okeanos_March_2011_2014-113_0188_20140423_105113_EX1402L3_MB.txt.mb162 149.7KB Generic XYZ sounding format
EX1402L3_Okeanos_March_2011_2014-113_0189_20140423_105330_EX1402L3_MB.txt.mb162 1.35MB Generic XYZ sounding format
EX1402L3_Okeanos_March_2011_2014-113_0190_20140423_221909_EX1402L3_MB.txt.mb162 7.21MB Generic XYZ sounding format
EX1402L3_Okeanos_March_2011_2014-114_0191_20140424_000558_EX1402L3_MB.txt.mb162 8.47MB Generic XYZ sounding format
EX1402L3_Okeanos_March_2011_2014-114_0192_20140424_020557_EX1402L3_MB.txt.mb162 5.43MB Generic XYZ sounding format
EX1402L3_Okeanos_March_2011_2014-114_0193_20140424_030526_EX1402L3_MB.txt.mb162 430.0KB Generic XYZ sounding format
EX1402L3_Okeanos_March_2011_2014-114_0194_20140424_030918_EX1402L3_MB.txt.mb162 3.50MB Generic XYZ sounding format
EX1402L3_Okeanos_March_2011_2014-114_0195_20140424_035101_EX1402L3_MB.txt.mb162 0.56MB Generic XYZ sounding format
EX1402L3_Okeanos_March_2011_2014-114_0196_20140424_035835_EX1402L3_MB.txt.mb162 2.77MB Generic XYZ sounding format
EX1402L3_Okeanos_March_2011_2014-114_0197_20140424_043548_EX1402L3_MB.txt.mb162 0.72MB Generic XYZ sounding format
EX1402L3_Okeanos_March_2011_2014-114_0198_20140424_044225_EX1402L3_MB.txt.mb162 5.83MB Generic XYZ sounding format
EX1402L3_Okeanos_March_2011_2014-114_0199_20140424_053441_EX1402L3_MB.txt.mb162 1.02MB Generic XYZ sounding format
EX1402L3_Okeanos_March_2011_2014-114_0200_20140424_054356_EX1402L3_MB.txt.mb162 6.28MB Generic XYZ sounding format
EX1402L3_Okeanos_March_2011_2014-114_0201_20140424_063811_EX1402L3_MB.txt.mb162 0.93MB Generic XYZ sounding format
EX1402L3_Okeanos_March_2011_2014-114_0202_20140424_064624_EX1402L3_MB.txt.mb162 6.95MB Generic XYZ sounding format
EX1402L3_Okeanos_March_2011_2014-114_0203_20140424_074532_EX1402L3_MB.txt.mb162 376.9KB Generic XYZ sounding format
EX1402L3_Okeanos_March_2011_2014-114_0204_20140424_074843_EX1402L3_MB.txt.mb162 159.8KB Generic XYZ sounding format
EX1402L3_Okeanos_March_2011_2014-114_0205_20140424_075003_EX1402L3_MB.txt.mb162 0.59MB Generic XYZ sounding format
EX1402L3_Okeanos_March_2011_2014-114_0206_20140424_075509_EX1402L3_MB.txt.mb162 4.27MB Generic XYZ sounding format
EX1402L3_Okeanos_March_2011_2014-114_0207_20140424_084018_EX1402L3_MB.txt.mb162 4.85MB Generic XYZ sounding format
EX1402L3_Okeanos_March_2011_2014-114_0208_20140424_094659_EX1402L3_MB.txt.mb162 1.97MB Generic XYZ sounding format
EX1402L3_Okeanos_March_2011_2014-114_0209_20140424_101418_EX1402L3_MB.txt.mb162 2.87MB Generic XYZ sounding format
EX1402L3_Okeanos_March_2011_2014-115_0210_20140425_021036_EX1402L3_MB.txt.mb162 8.25MB Generic XYZ sounding format
EX1402L3_Okeanos_March_2011_2014-115_0211_20140425_041041_EX1402L3_MB.txt.mb162 7.53MB Generic XYZ sounding format
EX1402L3_Okeanos_March_2011_2014-115_0212_20140425_061038_EX1402L3_MB.txt.mb162 7.53MB Generic XYZ sounding format
EX1402L3_Okeanos_March_2011_2014-115_0213_20140425_081043_EX1402L3_MB.txt.mb162 6.92MB Generic XYZ sounding format
EX1402L3_Okeanos_March_2011_2014-115_0214_20140425_101044_EX1402L3_MB.txt.mb162 7.05MB Generic XYZ sounding format
EX1402L3_Okeanos_March_2011_2014-115_0215_20140425_121039_EX1402L3_MB.txt.mb162 7.16MB Generic XYZ sounding format
EX1402L3_Okeanos_March_2011_2014-115_0216_20140425_141043_EX1402L3_MB.txt.mb162 7.40MB Generic XYZ sounding format
EX1402L3_Okeanos_March_2011_2014-115_0217_20140425_161043_EX1402L3_MB.txt.mb162 7.56MB Generic XYZ sounding format
EX1402L3_Okeanos_March_2011_2014-115_0218_20140425_181038_EX1402L3_MB.txt.mb162 7.23MB Generic XYZ sounding format
EX1402L3_Okeanos_March_2011_2014-115_0219_20140425_201040_EX1402L3_MB.txt.mb162 7.33MB Generic XYZ sounding format
EX1402L3_Okeanos_March_2011_2014-115_0220_20140425_221045_EX1402L3_MB.txt.mb162 4.76MB Generic XYZ sounding format
EX1402L3_Okeanos_March_2011_2014-116_0221_20140426_001039_EX1402L3_MB.txt.mb162 0.93MB Generic XYZ sounding format
EX1402L3_Okeanos_March_2011_2014-116_0222_20140426_004117_EX1402L3_MB.txt.mb162 3.55MB Generic XYZ sounding format
EX1402L3_Okeanos_March_2011_2014-116_0223_20140426_024117_EX1402L3_MB.txt.mb162 3.50MB Generic XYZ sounding format
EX1402L3_Okeanos_March_2011_2014-116_0224_20140426_044117_EX1402L3_MB.txt.mb162 3.45MB Generic XYZ sounding format
EX1402L3_Okeanos_March_2011_2014-116_0225_20140426_064115_EX1402L3_MB.txt.mb162 3.05MB Generic XYZ sounding format
EX1402L3_Okeanos_March_2011_2014-116_0226_20140426_082329_EX1402L3_MB.txt.mb162 47.0KB Generic XYZ sounding format
EX1402L3_Okeanos_March_2011_2014-116_0227_20140426_085252_EX1402L3_MB.txt.mb162 3.06MB Generic XYZ sounding format
EX1402L3_Okeanos_March_2011_2014-116_0228_20140426_094017_EX1402L3_MB.txt.mb162 136.0KB Generic XYZ sounding format
EX1402L3_Okeanos_March_2011_2014-116_0229_20140426_094258_EX1402L3_MB.txt.mb162 4.25MB Generic XYZ sounding format
EX1402L3_Okeanos_March_2011_2014-116_0230_20140426_104035_EX1402L3_MB.txt.mb162 352.9KB Generic XYZ sounding format
EX1402L3_Okeanos_March_2011_2014-116_0231_20140426_104501_EX1402L3_MB.txt.mb162 2.74MB Generic XYZ sounding format
EX1402L3_Okeanos_March_2011_2014-116_0232_20140426_222319_EX1402L3_MB.txt.mb162 1.67MB Generic XYZ sounding format
EX1402L3_Okeanos_March_2011_2014-116_0233_20140426_230006_EX1402L3_MB.txt.mb162 1.92MB Generic XYZ sounding format
EX1402L3_Okeanos_March_2011_2014-117_0234_20140427_000324_EX1402L3_MB.txt.mb162 1.01MB Generic XYZ sounding format
EX1402L3_Okeanos_March_2011_2014-117_0235_20140427_003746_EX1402L3_MB.txt.mb162 406.4KB Generic XYZ sounding format
EX1402L3_Okeanos_March_2011_2014-117_0236_20140427_005142_EX1402L3_MB.txt.mb162 86.2KB Generic XYZ sounding format
EX1402L3_Okeanos_March_2011_2014-117_0237_20140427_005455_EX1402L3_MB.txt.mb162 3.08MB Generic XYZ sounding format
EX1402L3_Okeanos_March_2011_2014-117_0238_20140427_023306_EX1402L3_MB.txt.mb162 1.44MB Generic XYZ sounding format
EX1402L3_Okeanos_March_2011_2014-117_0239_20140427_025447_EX1402L3_MB.txt.mb162 392.5KB Generic XYZ sounding format
EX1402L3_Okeanos_March_2011_2014-117_0240_20140427_030040_EX1402L3_MB.txt.mb162 3.11MB Generic XYZ sounding format
EX1402L3_Okeanos_March_2011_2014-117_0241_20140427_043955_EX1402L3_MB.txt.mb162 420.2KB Generic XYZ sounding format
EX1402L3_Okeanos_March_2011_2014-117_0242_20140427_045422_EX1402L3_MB.txt.mb162 3.58MB Generic XYZ sounding format
EX1402L3_Okeanos_March_2011_2014-117_0243_20140427_065421_EX1402L3_MB.txt.mb162 3.52MB Generic XYZ sounding format
EX1402L3_Okeanos_March_2011_2014-117_0244_20140427_085101_EX1402L3_MB.txt.mb162 1.17MB Generic XYZ sounding format
EX1402L3_Okeanos_March_2011_2014-117_0245_20140427_091824_EX1402L3_MB.txt.mb162 6.09MB Generic XYZ sounding format
EX1402L3_Okeanos_March_2011_2014-117_0246_20140427_105411_EX1402L3_MB.txt.mb162 149.7KB Generic XYZ sounding format
EX1402L3_Okeanos_March_2011_2014-117_0247_20140427_105600_EX1402L3_MB.txt.mb162 1.68MB Generic XYZ sounding format
EX1402L3_Okeanos_March_2011_2014-117_0248_20140427_112307_EX1402L3_MB.txt.mb162 244.7KB Generic XYZ sounding format
EX1402L3_Okeanos_March_2011_2014-117_0249_20140427_113132_EX1402L3_MB.txt.mb162 343.0KB Generic XYZ sounding format
EX1402L3_Okeanos_March_2011_2014-118_0250_20140428_022629_EX1402L3_MB.txt.mb162 135.6KB Generic XYZ sounding format
EX1402L3_Okeanos_March_2011_2014-118_0251_20140428_023100_EX1402L3_MB.txt.mb162 0.84MB Generic XYZ sounding format
EX1402L3_Okeanos_March_2011_2014-118_0252_20140428_025814_EX1402L3_MB.txt.mb162 251.8KB Generic XYZ sounding format
EX1402L3_Okeanos_March_2011_2014-118_0253_20140428_030318_EX1402L3_MB.txt.mb162 1.60MB Generic XYZ sounding format
EX1402L3_Okeanos_March_2011_2014-118_0254_20140428_035520_EX1402L3_MB.txt.mb162 197.0KB Generic XYZ sounding format
EX1402L3_Okeanos_March_2011_2014-118_0255_20140428_040157_EX1402L3_MB.txt.mb162 1.80MB Generic XYZ sounding format
EX1402L3_Okeanos_March_2011_2014-118_0256_20140428_043402_EX1402L3_MB.txt.mb162 1.15MB Generic XYZ sounding format
EX1402L3_Okeanos_March_2011_2014-118_0257_20140428_044859_EX1402L3_MB.txt.mb162 3.32MB Generic XYZ sounding format
EX1402L3_Okeanos_March_2011_2014-118_0258_20140428_053253_EX1402L3_MB.txt.mb162 0.66MB Generic XYZ sounding format
EX1402L3_Okeanos_March_2011_2014-118_0259_20140428_054603_EX1402L3_MB.txt.mb162 6.82MB Generic XYZ sounding format
EX1402L3_Okeanos_March_2011_2014-118_0260_20140428_065936_EX1402L3_MB.txt.mb162 328.2KB Generic XYZ sounding format
EX1402L3_Okeanos_March_2011_2014-118_0261_20140428_070132_EX1402L3_MB.txt.mb162 16.53MB Generic XYZ sounding format
EX1402L3_Okeanos_March_2011_2014-118_0262_20140428_083540_EX1402L3_MB.txt.mb162 4.05MB Generic XYZ sounding format
EX1402L3_Okeanos_March_2011_2014-118_0263_20140428_085613_EX1402L3_MB.txt.mb162 0.76MB Generic XYZ sounding format
EX1402L3_Okeanos_March_2011_2014-118_0264_20140428_085926_EX1402L3_MB.txt.mb162 1.48MB Generic XYZ sounding format
EX1402L3_Okeanos_March_2011_2014-118_0265_20140428_090541_EX1402L3_MB.txt.mb162 4.09MB Generic XYZ sounding format
EX1402L3_Okeanos_March_2011_2014-118_0266_20140428_092301_EX1402L3_MB.txt.mb162 21.58MB Generic XYZ sounding format
EX1402L3_Okeanos_March_2011_2014-118_0267_20140428_111053_EX1402L3_MB.txt.mb162 1.00MB Generic XYZ sounding format
EX1402L3_Okeanos_March_2011_2014-118_0268_20140428_111622_EX1402L3_MB.txt.mb162 3.08MB Generic XYZ sounding format
EX1402L3_Okeanos_March_2011_2014-118_0269_20140428_222434_EX1402L3_MB.txt.mb162 9.99MB Generic XYZ sounding format
EX1402L3_Okeanos_March_2011_2014-118_0270_20140428_230505_EX1402L3_MB.txt.mb162 0.53MB Generic XYZ sounding format
EX1402L3_Okeanos_March_2011_2014-118_0271_20140428_230650_EX1402L3_MB.txt.mb162 17.77MB Generic XYZ sounding format
EX1402L3_Okeanos_March_2011_2014-119_0272_20140429_002031_EX1402L3_MB.txt.mb162 18.74MB Generic XYZ sounding format
EX1402L3_Okeanos_March_2011_2014-119_0273_20140429_014346_EX1402L3_MB.txt.mb162 0.51MB Generic XYZ sounding format
EX1402L3_Okeanos_March_2011_2014-119_0274_20140429_014553_EX1402L3_MB.txt.mb162 0.64MB Generic XYZ sounding format
EX1402L3_Okeanos_March_2011_2014-119_0275_20140429_014851_EX1402L3_MB.txt.mb162 1.00MB Generic XYZ sounding format
EX1402L3_Okeanos_March_2011_2014-119_0276_20140429_015253_EX1402L3_MB.txt.mb162 33.78MB Generic XYZ sounding format
EX1402L3_Okeanos_March_2011_2014-119_0277_20140429_035253_EX1402L3_MB.txt.mb162 7.17MB Generic XYZ sounding format
EX1402L3_Okeanos_March_2011_2014-119_0278_20140429_042210_EX1402L3_MB.txt.mb162 494.8KB Generic XYZ sounding format
EX1402L3_Okeanos_March_2011_2014-119_0279_20140429_042414_EX1402L3_MB.txt.mb162 391.1KB Generic XYZ sounding format
EX1402L3_Okeanos_March_2011_2014-119_0280_20140429_042551_EX1402L3_MB.txt.mb162 0.78MB Generic XYZ sounding format
EX1402L3_Okeanos_March_2011_2014-119_0281_20140429_042902_EX1402L3_MB.txt.mb162 32.53MB Generic XYZ sounding format
EX1402L3_Okeanos_March_2011_2014-119_0282_20140429_062903_EX1402L3_MB.txt.mb162 7.91MB Generic XYZ sounding format
EX1402L3_Okeanos_March_2011_2014-119_0283_20140429_070045_EX1402L3_MB.txt.mb162 421.5KB Generic XYZ sounding format
EX1402L3_Okeanos_March_2011_2014-119_0284_20140429_070215_EX1402L3_MB.txt.mb162 0.88MB Generic XYZ sounding format
EX1402L3_Okeanos_March_2011_2014-119_0285_20140429_070551_EX1402L3_MB.txt.mb162 468.2KB Generic XYZ sounding format
EX1402L3_Okeanos_March_2011_2014-119_0286_20140429_070730_EX1402L3_MB.txt.mb162 32.21MB Generic XYZ sounding format
EX1402L3_Okeanos_March_2011_2014-119_0287_20140429_090731_EX1402L3_MB.txt.mb162 11.61MB Generic XYZ sounding format
EX1402L3_Okeanos_March_2011_2014-119_0288_20140429_095235_EX1402L3_MB.txt.mb162 0.84MB Generic XYZ sounding format
EX1402L3_Okeanos_March_2011_2014-119_0289_20140429_095646_EX1402L3_MB.txt.mb162 16.22MB Generic XYZ sounding format
EX1402L3_Okeanos_March_2011_2014-119_0290_20140429_222205_EX1402L3_MB.txt.mb162 6.19MB Generic XYZ sounding format
EX1402L3_Okeanos_March_2011_2014-119_0291_20140429_224548_EX1402L3_MB.txt.mb162 1.37MB Generic XYZ sounding format
EX1402L3_Okeanos_March_2011_2014-119_0292_20140429_225018_EX1402L3_MB.txt.mb162 22.69MB Generic XYZ sounding format
EX1402L3_Okeanos_March_2011_2014-120_0293_20140430_000326_EX1402L3_MB.txt.mb162 7.95MB Generic XYZ sounding format
EX1402L3_Okeanos_March_2011_2014-120_0294_20140430_003155_EX1402L3_MB.txt.mb162 12.86MB Generic XYZ sounding format
EX1402L3_Okeanos_March_2011_2014-120_0295_20140430_012124_EX1402L3_MB.txt.mb162 0.56MB Generic XYZ sounding format
EX1402L3_Okeanos_March_2011_2014-120_0296_20140430_012328_EX1402L3_MB.txt.mb162 5.98MB Generic XYZ sounding format
EX1402L3_Okeanos_March_2011_2014-120_0297_20140430_014646_EX1402L3_MB.txt.mb162 1.06MB Generic XYZ sounding format
EX1402L3_Okeanos_March_2011_2014-120_0298_20140430_015042_EX1402L3_MB.txt.mb162 24.98MB Generic XYZ sounding format
EX1402L3_Okeanos_March_2011_2014-120_0299_20140430_035042_EX1402L3_MB.txt.mb162 12.16MB Generic XYZ sounding format
EX1402L3_Okeanos_March_2011_2014-120_0300_20140430_045459_EX1402L3_MB.txt.mb162 233.0KB Generic XYZ sounding format
EX1402L3_Okeanos_March_2011_2014-120_0301_20140430_045605_EX1402L3_MB.txt.mb162 287.3KB Generic XYZ sounding format
EX1402L3_Okeanos_March_2011_2014-120_0302_20140430_045730_EX1402L3_MB.txt.mb162 0.66MB Generic XYZ sounding format
EX1402L3_Okeanos_March_2011_2014-120_0303_20140430_050104_EX1402L3_MB.txt.mb162 24.65MB Generic XYZ sounding format
EX1402L3_Okeanos_March_2011_2014-120_0304_20140430_070104_EX1402L3_MB.txt.mb162 9.64MB Generic XYZ sounding format
EX1402L3_Okeanos_March_2011_2014-120_0305_20140430_073537_EX1402L3_MB.txt.mb162 5.52MB Generic XYZ sounding format
EX1402L3_Okeanos_March_2011_2014-120_0306_20140430_075512_EX1402L3_MB.txt.mb162 10.27MB Generic XYZ sounding format
EX1402L3_Okeanos_March_2011_2014-120_0307_20140430_083342_EX1402L3_MB.txt.mb162 1.60MB Generic XYZ sounding format
EX1402L3_Okeanos_March_2011_2014-120_0308_20140430_084001_EX1402L3_MB.txt.mb162 17.30MB Generic XYZ sounding format
EX1402L3_Okeanos_March_2011_2014-120_0309_20140430_093138_EX1402L3_MB.txt.mb162 9.29MB Generic XYZ sounding format
EX1402L3_Okeanos_March_2011_2014-120_0310_20140430_095815_EX1402L3_MB.txt.mb162 5.02MB Generic XYZ sounding format
EX1402L3_Okeanos_March_2011_2014-120_0311_20140430_101444_EX1402L3_MB.txt.mb162 3.50MB Generic XYZ sounding format
EX1402L3_Okeanos_March_2011_2014-120_0312_20140430_135252_EX1402L3_MB.txt.mb162 7.14MB Generic XYZ sounding format
EX1402L3_Okeanos_March_2011_2014-120_0313_20140430_141354_EX1402L3_MB.txt.mb162 37.46MB Generic XYZ sounding format
EX1402L3_Okeanos_March_2011_2014-120_0314_20140430_161353_EX1402L3_MB.txt.mb162 22.42MB Generic XYZ sounding format
EX1402L3_Okeanos_March_2011_2014-120_0315_20140430_175049_EX1402L3_MB.txt.mb162 1.32MB Generic XYZ sounding format
EX1402L3_Okeanos_March_2011_2014-120_0316_20140430_175638_EX1402L3_MB.txt.mb162 15.20MB Generic XYZ sounding format
EX1402L3_Okeanos_March_2011_2014-120_0317_20140430_190209_EX1402L3_MB.txt.mb162 2.10MB Generic XYZ sounding format
EX1402L3_Okeanos_March_2011_2014-120_0318_20140430_191015_EX1402L3_MB.txt.mb162 46.36MB Generic XYZ sounding format
EX1402L3_Okeanos_March_2011_2014-120_0319_20140430_211014_EX1402L3_MB.txt.mb162 100.92MB Generic XYZ sounding format
EX1402L3_Okeanos_March_2011_2014-121_0320_20140430_231014_EX1402L3_MB.txt.mb162 98.72MB Generic XYZ sounding format
EX1402L3_Okeanos_March_2011_2014-107_0095_20140417_095313_EX1402L3_MB.txt.mb162 7.45MB Generic XYZ sounding format
EX1402L3_Okeanos_March_2011_2014-107_0096_20140417_112225_EX1402L3_MB.txt.mb162 278.4KB Generic XYZ sounding format

Products: 16

Files File Size Description
EX1402L3_Dive02_Seeps.scene.gz 6.51MB Fledermaus Scene file
EX1402L3_MB_FNL_01_30M_WGS84.asc.gz 29.95MB ESRI Arc ASCII
EX1402L3_MB_FNL_01_30M_WGS84.kmz.gz 1.10MB Compressed Keyhole Markup Language file
EX1402L3_MB_FNL_01_30M_WGS84.sd.gz 39.49MB Fledermaus surface
EX1402L3_MB_FNL_01_30M_WGS84.tif.gz 14.23MB GeoTIFF survey image
EX1402L3_MB_FNL_01_30M_WGS84.xyz.gz 60.59MB xyz grid file provided by the originator
EX1402L3_MB_FNL_02_30M_WGS84.asc.gz 13.64MB ESRI Arc ASCII
EX1402L3_MB_FNL_02_30M_WGS84.kmz.gz 282.5KB Compressed Keyhole Markup Language file
EX1402L3_MB_FNL_02_30M_WGS84.sd.gz 16.43MB Fledermaus surface
EX1402L3_MB_FNL_02_30M_WGS84.tif.gz 2.40MB GeoTIFF survey image
EX1402L3_MB_FNL_02_30M_WGS84.xyz.gz 23.67MB xyz grid file provided by the originator
EX1402L3_MB_FNL_03_30M_WGS84.asc.gz 11.13MB ESRI Arc ASCII
EX1402L3_MB_FNL_03_30M_WGS84.kmz.gz 272.2KB Compressed Keyhole Markup Language file
EX1402L3_MB_FNL_03_30M_WGS84.sd.gz 13.72MB Fledermaus surface
EX1402L3_MB_FNL_03_30M_WGS84.tif.gz 9.66MB GeoTIFF survey image
EX1402L3_MB_FNL_03_30M_WGS84.xyz.gz 21.67MB xyz grid file provided by the originator

Metadata Files: 8

Files File Size Description
EX1402L3_Multibeam.xml NCEI created ISO metadata
EX1402L3_COLLECTION_UNRESOLVED.xml 10.0KB XML metadata file
EX1402L3_Multibeam_COLLECTION_UNRESOLVED.xml 21.0KB XML metadata file
EX1402L3_Profile_COLLECTION_UNRESOLVED.xml 15.3KB XML metadata file
v1_nonpublic_file_metadata.tar.gz 3.8KB File level metadata
v1_file_metadata.tar.gz 90.2KB File level metadata
v2_nonpublic_file_metadata.tar.gz 4.9KB File level metadata
v2_file_metadata.tar.gz 102.2KB File level metadata

Ancillary Files: 6

Files File Size Description
asvp.tar.gz 341.8KB Sound Speed Profiles (SSP or SVP)
ctd.tar.gz 2.9KB Conductivity, Temperature, Depth (CTD) data
rov_ctd.tar.gz 83.97MB Conductivity, Temperature, Depth (CTD) data
seirios_ctd.tar.gz 76.06MB Conductivity, Temperature, Depth (CTD) data
support.tar.gz 114.1KB Supporting data
xbt.tar.gz 1.58MB Expendable Bathythermograph (XBT) data

Water Column Sonar Data

Water Column Sonar Data Available: WCSD Map Viewer